Total_Precipitation_Accumulation
0.95 0.99 1.04 0.96 0.95 0.97 1.09 1.30 1.53 1.37 0.91 0.65 0.67 0.68 0.70 0.78 0.94 0.99 1.01 1.14 1.13 1.13 1.16 1.21 1.30 1.22 1.14 1.13 1.24 1.28 1.31 1.41 1.58 1.74 1.92 2.19 2.54 3.30
1.09 1.08 1.08 1.05 1.00 0.93 0.94 1.01 1.24 1.45 1.37 0.79 0.78 0.85 0.89 0.96 1.04 0.92 0.81 0.96 0.88 0.87 0.90 0.92 0.87 0.82 0.82 0.84 0.88 0.86 0.90 0.94 1.03 1.23 1.35 1.52 1.75 1.91
1.26 1.25 1.13 1.19 1.48 1.55 1.51 1.56 1.72 1.94 2.10 1.47 1.05 0.96 0.91 0.84 0.86 0.83 0.75 0.63 0.59 0.77 0.68 0.66 0.62 0.57 0.60 0.60 0.59 0.59 0.58 0.59 0.68 0.83 0.99 1.17 1.30 1.48
0.89 1.02 0.97 0.96 0.99 0.97 1.03 1.13 1.24 1.36 1.63 1.46 1.08 1.05 1.02 0.96 0.95 0.94 0.89 0.83 0.76 0.92 0.81 0.58 0.42 0.32 0.31 0.32 0.36 0.40 0.42 0.46 0.50 0.55 0.59 0.65 0.72 0.81
0.69 0.70 0.66 0.77 0.82 0.93 1.07 1.21 1.27 1.40 1.58 1.59 1.25 1.08 1.01 0.98 1.02 0.99 0.94 0.90 0.84 0.98 0.85 0.69 0.67 0.60 0.49 0.46 0.43 0.37 0.29 0.25 0.25 0.28 0.33 0.33 0.36 0.47
0.36 0.48 0.58 0.72 0.84 0.97 1.05 1.04 1.10 1.22 1.23 1.23 1.04 0.78 0.61 0.57 0.67 0.62 0.56 0.51 0.49 0.56 0.62 0.53 0.54 0.52 0.50 0.47 0.45 0.44 0.40 0.37 0.30 0.22 0.22 0.27 0.31 0.40
0.27 0.31 0.33 0.46 0.57 0.62 0.77 0.86 1.00 1.17 1.30 1.29 1.03 0.78 0.53 0.35 0.29 0.26 0.33 0.31 0.34 0.33 0.31 0.32 0.31 0.26 0.23 0.26 0.25 0.32 0.40 0.47 0.55 0.59 0.56 0.47 0.43 0.43
0.28 0.36 0.45 0.59 0.53 0.51 0.46 0.42 0.42 0.59 0.76 0.84 0.85 0.71 0.56 0.51 0.57 0.61 0.61 0.57 0.47 0.19 0.15 0.12 0.12 0.11 0.13 0.19 0.30 0.33 0.31 0.34 0.37 0.47 0.58 0.60 0.60 0.58
0.48 0.45 0.37 0.35 0.35 0.29 0.29 0.31 0.34 0.34 0.36 0.32 0.28 0.20 0.21 0.26 0.42 0.54 0.55 0.52 0.41 0.23 0.32 0.30 0.16 0.08 0.04 0.12 0.23 0.22 0.29 0.32 0.34 0.38 0.52 0.60 0.66 0.72
0.45 0.40 0.33 0.26 0.19 0.14 0.16 0.21 0.11 0.08 0.13 0.19 0.21 0.27 0.38 0.43 0.55 0.71 0.61 0.53 0.46 0.35 0.32 0.32 0.13 0.12 0.06 0.05 0.12 0.10 0.17 0.23 0.29 0.35 0.41 0.47 0.61 0.72
0.14 0.07 0.03 0.03 0.05 0.09 0.10 0.05 0.02 0.02 0.09 0.16 0.24 0.31 0.35 0.38 0.35 0.44 0.61 0.70 0.66 0.41 0.31 0.31 0.19 0.17 0.15 0.11 0.10 0.12 0.07 0.10 0.14 0.22 0.29 0.35 0.38 0.45
0.01 0.00 0.02 0.02 0.07 0.11 0.07 0.03 0.05 0.02 0.07 0.07 0.09 0.11 0.14 0.20 0.27 0.25 0.31 0.57 0.45 0.46 0.29 0.47 0.37 0.36 0.62 0.27 0.16 0.16 0.13 0.14 0.13 0.13 0.15 0.21 0.34 0.35
0.03 0.01 0.00 0.06 0.10 0.10 0.14 0.13 0.12 0.12 0.13 0.13 0.12 0.17 0.16 0.14 0.16 0.14 0.13 0.39 0.63 0.48 0.21 0.69 0.77 0.42 0.68 0.37 0.17 0.23 0.21 0.19 0.20 0.18 0.17 0.22 0.35 0.45
0.03 0.03 0.03 0.11 0.15 0.17 0.17 0.16 0.18 0.23 0.19 0.15 0.15 0.16 0.18 0.15 0.13 0.12 0.14 0.14 0.22 0.39 0.21 0.39 0.92 0.40 0.67 0.52 0.24 0.18 0.28 0.25 0.25 0.25 0.22 0.34 0.37 0.49
0.06 0.10 0.14 0.19 0.20 0.17 0.17 0.18 0.25 0.26 0.21 0.17 0.19 0.15 0.12 0.14 0.20 0.25 0.25 0.23 0.23 0.20 0.21 0.16 0.39 0.37 0.61 0.74 0.44 0.16 0.30 0.30 0.24 0.31 0.36 0.43 0.42 0.40
0.14 0.21 0.32 0.30 0.29 0.26 0.22 0.19 0.23 0.30 0.30 0.24 0.26 0.24 0.31 0.40 0.39 0.32 0.38 0.38 0.44 0.36 0.24 0.25 0.26 0.38 0.61 0.41 0.57 0.44 0.25 0.43 0.28 0.28 0.45 0.45 0.41 0.40
0.50 0.39 0.37 0.40 0.33 0.26 0.21 0.24 0.31 0.33 0.37 0.28 0.30 0.30 0.30 0.35 0.41 0.46 0.49 0.52 0.57 0.43 0.34 0.26 0.22 0.33 0.35 0.35 0.56 0.30 0.26 0.27 0.32 0.47 0.55 0.60 0.43 0.45
0.67 0.39 0.35 0.31 0.31 0.36 0.40 0.39 0.34 0.39 0.37 0.35 0.32 0.36 0.43 0.42 0.45 0.41 0.46 0.61 0.67 0.47 0.44 0.41 0.35 0.42 0.47 0.43 0.40 0.39 0.39 0.34 0.35 0.39 0.40 0.85 0.57 0.38
0.64 0.22 0.23 0.34 0.43 0.43 0.40 0.47 0.48 0.36 0.47 0.61 0.73 0.71 0.69 0.68 0.64 0.56 0.51 0.57 0.56 0.57 0.61 0.57 0.71 0.96 1.11 0.60 0.38 0.42 0.74 0.55 0.37 0.42 0.46 0.61 0.71 0.53
0.41 0.27 0.27 0.31 0.36 0.51 0.59 0.51 0.52 0.62 0.70 0.75 0.91 0.94 0.95 0.96 0.80 0.66 0.57 0.68 0.70 0.59 0.55 0.61 0.74 0.95 1.51 1.08 0.84 0.43 0.43 0.58 0.80 0.75 0.62 0.63 0.87 0.80
0.26 0.29 0.29 0.38 0.38 0.38 0.47 0.64 0.70 0.65 0.68 0.78 0.76 0.79 0.78 0.98 0.78 0.61 0.62 0.61 0.69 0.80 0.72 0.41 0.42 0.69 1.10 1.43 1.39 0.68 0.55 0.55 0.67 1.09 0.96 0.99 0.74 0.57
0.24 0.29 0.23 0.23 0.28 0.37 0.45 0.55 0.64 0.64 0.65 0.59 0.55 0.62 0.65 0.80 0.81 0.68 0.65 0.77 0.56 0.49 0.60 0.56 0.58 0.70 0.97 1.32 0.88 0.46 0.46 0.57 0.70 0.71 0.67 1.25 1.62 1.56
0.32 0.39 0.34 0.26 0.27 0.33 0.44 0.48 0.47 0.43 0.45 0.53 0.57 0.58 0.64 0.75 0.54 0.66 0.71 0.72 0.70 0.80 0.68 0.78 0.71 0.70 0.63 0.67 0.75 0.65 0.46 0.45 0.50 0.68 0.71 0.65 0.68 0.77